Plymouth, NH

7:22 PM EDT on August 28, 2016 (GMT -0400)
Plymouth

Weather History for K1P1 - July, 2012

Change the Weather History Date:

Monday, July 16, 2012

  Actual Average (KLCI) Record (KLCI)
Temperature  
Mean Temperature 76 °F -  
Max Temperature 85 °F 81 °F 91 °F (1999)
Min Temperature 66 °F 60 °F 46 °F (2015)
Cooling Degree Days 10    
Growing Degree Days 26 (Base 50)    
Moisture  
Dew Point 67 °F    
Average Humidity 77    
Maximum Humidity 97    
Minimum Humidity 51    
Precipitation  
Precipitation 0.01 in - - ()
Sea Level Pressure  
Sea Level Pressure 29.80 in    
Wind  
Wind Speed 3 mph (WNW)    
Max Wind Speed 12 mph    
Max Gust Speed 18 mph    
Visibility 8 miles    
Events Fog , Rain    
Averages and records for this station are not official NWS values.
T = Trace of Precipitation, MM = Missing Value Source: NWS Daily Summary

Daily Weather History Graph

Daily Weather History Graph

Search for Another Location

Airport or City:

Trip Planner

Search our weather history database for the weather conditions in past years. The results will help you decide how hot, cold, wet, or windy it might be!

Date:

Astronomy

Jul. 16, 2012 Rise Set
Actual Time 5:20 AM EDT 8:25 PM EDT
Civil Twilight 4:45 AM EDT 9:00 PM EDT
Nautical Twilight 4:01 AM EDT 9:44 PM EDT
Astronomical Twilight 3:07 AM EDT 10:37 PM EDT
Moon 3:01 AM EDT (7/16) 6:28 PM EDT (7/16)
Length of Visible Light 16h 14m
Length of Day
15h 05m
Waning Crescent, 6% of the Moon is Illuminated
Jul 16
Waning Crescent
Jul 19
New
Jul 26
First Quarter
Aug 1
Full
Aug 9
Last Quarter

Hourly Weather History & Observations

Time (EDT) Temp. Heat Index Dew Point Humidity Pressure Visibility Wind Dir Wind Speed Gust Speed Precip Events Conditions
12:15 AM 69.8 °F - 68.9 °F 97% 29.88 in 3.0 mi Calm Calm - N/A Rain Light Rain
12:35 AM 69.8 °F - 68.7 °F 96% 29.87 in 2.5 mi Calm Calm - 0.01 in Rain Light Rain
12:55 AM 69.8 °F - 68.5 °F 96% 29.87 in 3.0 mi Calm Calm - 0.01 in   Overcast
1:15 AM 69.4 °F - 68.5 °F 97% 29.87 in 1.0 mi Calm Calm - N/A   Overcast
1:55 AM 69.3 °F - 68.4 °F 97% 29.86 in 1.5 mi Calm Calm - N/A   Overcast
2:15 AM 69.4 °F - 68.5 °F 97% 29.86 in 1.8 mi Calm Calm - N/A   Overcast
2:35 AM 69.3 °F - 68.4 °F 97% 29.86 in 1.2 mi Calm Calm - N/A   Overcast
2:55 AM 68.9 °F - 68.0 °F 97% 29.84 in 0.5 mi Calm Calm - N/A Fog Fog
3:15 AM 68.9 °F - 68.0 °F 97% 29.83 in 0.8 mi Calm Calm - N/A   Overcast
3:35 AM 68.9 °F - 68.0 °F 97% 29.82 in 2.0 mi West 4.6 mph - N/A   Overcast
3:55 AM 68.9 °F - 68.0 °F 97% 29.82 in 4.0 mi West 4.6 mph - N/A   Scattered Clouds
4:15 AM 68.0 °F - 67.1 °F 97% 29.81 in 3.0 mi Calm Calm - N/A   Clear
4:35 AM 68.2 °F - 67.3 °F 97% 29.81 in 4.0 mi Calm Calm - N/A   Clear
4:55 AM 68.2 °F - 67.3 °F 97% 29.81 in 5.0 mi ENE 3.5 mph - N/A   Clear
5:15 AM 68.0 °F - 67.1 °F 97% 29.82 in 4.0 mi Calm Calm - N/A   Clear
5:35 AM 66.9 °F - 66.0 °F 97% 29.82 in 1.5 mi Calm Calm - N/A   Mostly Cloudy
5:55 AM 67.8 °F - 66.9 °F 97% 29.82 in 4.0 mi WNW 5.8 mph - N/A   Mostly Cloudy
6:15 AM 68.4 °F - 67.5 °F 97% 29.83 in 5.0 mi WNW 4.6 mph - N/A   Scattered Clouds
6:35 AM 68.9 °F - 68.0 °F 97% 29.83 in 7.0 mi North 3.5 mph - N/A   Clear
6:55 AM 69.4 °F - 67.5 °F 93% 29.83 in 7.0 mi NW 5.8 mph - N/A   Clear
7:15 AM 70.7 °F - 67.6 °F 90% 29.83 in 10.0 mi West 5.8 mph - N/A   Clear
7:35 AM 71.6 °F - 67.3 °F 86% 29.83 in 10.0 mi West 6.9 mph - N/A   Clear
7:55 AM 72.5 °F - 67.5 °F 84% 29.83 in 10.0 mi West 9.2 mph - N/A   Clear
8:15 AM 73.4 °F - 67.1 °F 81% 29.83 in 10.0 mi WNW 6.9 mph - N/A   Clear
8:35 AM 74.3 °F - 66.6 °F 77% 29.83 in 10.0 mi West 6.9 mph - N/A   Clear
8:55 AM 75.2 °F - 66.7 °F 75% 29.83 in 10.0 mi West 6.9 mph - N/A   Clear
9:15 AM 75.7 °F - 67.1 °F 74% 29.83 in 10.0 mi WNW 8.1 mph - N/A   Clear
9:35 AM 76.3 °F - 67.1 °F 73% 29.82 in 10.0 mi West 8.1 mph - N/A   Clear
9:55 AM 77.0 °F - 66.4 °F 70% 29.82 in 10.0 mi West 6.9 mph - N/A   Clear
10:15 AM 77.9 °F - 66.6 °F 68% 29.81 in 10.0 mi West 9.2 mph - N/A   Clear
11:15 AM 79.9 °F - 66.6 °F 64% 29.80 in 10.0 mi West 8.1 mph - N/A   Clear
11:35 AM 80.6 °F 82.9 °F 66.9 °F 63% 29.79 in 10.0 mi West 8.1 mph - N/A   Scattered Clouds
11:55 AM 80.8 °F 82.9 °F 66.0 °F 61% 29.79 in 10.0 mi WSW 5.8 mph - N/A   Mostly Cloudy
12:15 PM 80.8 °F 82.9 °F 66.4 °F 61% 29.80 in 10.0 mi West 6.9 mph - N/A   Mostly Cloudy
12:35 PM 80.6 °F 82.8 °F 66.6 °F 62% 29.79 in 10.0 mi West 6.9 mph - N/A   Overcast
12:55 PM 82.6 °F 84.9 °F 66.4 °F 58% 29.79 in 10.0 mi West 11.5 mph - N/A   Scattered Clouds
1:15 PM 83.7 °F 86.2 °F 66.9 °F 57% 29.79 in 10.0 mi WNW 8.1 mph - N/A   Clear
1:35 PM 84.2 °F 86.6 °F 66.2 °F 55% 29.78 in 10.0 mi West 8.1 mph - N/A   Scattered Clouds
1:55 PM 84.2 °F 86.8 °F 66.9 °F 56% 29.78 in 10.0 mi NW 5.8 mph - N/A   Scattered Clouds
2:15 PM 84.7 °F 86.8 °F 65.8 °F 53% 29.78 in 10.0 mi WNW 8.1 mph - N/A   Scattered Clouds
2:35 PM 84.9 °F 87.1 °F 66.0 °F 53% 29.77 in 10.0 mi West 6.9 mph - N/A   Scattered Clouds
3:15 PM 84.9 °F 87.6 °F 66.9 °F 55% 29.77 in 10.0 mi NW 8.1 mph - N/A   Scattered Clouds
3:35 PM 84.0 °F 86.3 °F 66.2 °F 55% 29.77 in 10.0 mi NW 9.2 mph - N/A   Mostly Cloudy
3:55 PM 84.9 °F 87.1 °F 66.0 °F 53% 29.76 in 10.0 mi West 6.9 mph - N/A   Scattered Clouds
4:15 PM 85.6 °F 87.9 °F 66.2 °F 52% 29.76 in 10.0 mi WNW 4.6 mph - N/A   Mostly Cloudy
4:35 PM 84.2 °F 86.1 °F 65.3 °F 53% 29.75 in 10.0 mi WNW 5.8 mph - N/A   Mostly Cloudy
4:55 PM 85.3 °F 87.1 °F 65.5 °F 51% 29.75 in 10.0 mi WNW 5.8 mph - N/A   Scattered Clouds
5:15 PM 84.7 °F 86.3 °F 64.6 °F 51% 29.75 in 10.0 mi NW 3.5 mph 18.4 mph N/A   Clear
5:35 PM 83.8 °F 85.1 °F 64.0 °F 51% 29.75 in 10.0 mi WNW 10.4 mph - N/A   Clear
5:55 PM 83.7 °F 85.3 °F 64.8 °F 53% 29.75 in 10.0 mi NW 8.1 mph - N/A   Clear
6:15 PM 82.6 °F 84.7 °F 65.8 °F 57% 29.75 in 10.0 mi WNW 3.5 mph - N/A   Clear
6:35 PM 81.5 °F 83.9 °F 66.7 °F 61% 29.76 in 10.0 mi WNW 4.6 mph - N/A   Clear
6:55 PM 82.0 °F 84.5 °F 66.9 °F 60% 29.76 in 10.0 mi NW 3.5 mph - N/A   Clear
7:15 PM 81.3 °F 84.1 °F 68.0 °F 64% 29.75 in 10.0 mi Calm Calm - N/A   Clear
7:35 PM 80.8 °F 83.3 °F 67.5 °F 64% 29.75 in 10.0 mi Calm Calm - N/A   Clear
7:55 PM 78.1 °F - 70.0 °F 76% 29.76 in 10.0 mi Calm Calm - N/A   Clear
8:15 PM 76.3 °F - 70.7 °F 83% 29.76 in 10.0 mi West 3.5 mph - N/A   Clear
8:35 PM 75.2 °F - 70.3 °F 85% 29.77 in 10.0 mi West 3.5 mph - N/A   Clear
8:55 PM 73.4 °F - 70.0 °F 89% 29.78 in 10.0 mi Calm Calm - N/A   Clear
9:15 PM 72.5 °F - 69.3 °F 90% 29.78 in 7.0 mi Calm Calm - N/A   Clear
9:35 PM 71.8 °F - 68.9 °F 91% 29.79 in 10.0 mi West 5.8 mph - N/A   Clear
9:55 PM 72.0 °F - 67.5 °F 86% 29.79 in 10.0 mi West 4.6 mph - N/A   Clear
10:15 PM 71.8 °F - 67.1 °F 85% 29.79 in 10.0 mi West 4.6 mph - N/A   Clear
10:35 PM 71.4 °F - 66.9 °F 86% 29.79 in 10.0 mi WSW 4.6 mph - N/A   Clear
10:55 PM 69.8 °F - 66.4 °F 89% 29.79 in 10.0 mi Calm Calm - N/A   Clear
11:15 PM 69.1 °F - 66.4 °F 91% 29.80 in 7.0 mi Calm Calm - N/A   Clear